| time (UTC) | temp F | wind direction | speed MPH | gust MPH | rain 1hr in | rain 24hr in | rain mn in | humidity % | barometer mb |
| 20260507214803 | 43 | 5 | 0.0 | 0.0 | 0.00 | 0.12 | 0.12 | 99 | 1017.1 |
| 20260507214304 | 43 | 5 | 0.0 | 0.0 | 0.00 | 0.12 | 0.12 | 99 | 1017.1 |
| 20260507213303 | 44 | 5 | 0.0 | 1.0 | 0.00 | 0.12 | 0.12 | 99 | 1017.1 |
| 20260507212804 | 44 | 5 | 0.0 | 0.0 | 0.00 | 0.12 | 0.12 | 99 | 1017.1 |
| 20260507211803 | 44 | 5 | 0.0 | 0.0 | 0.00 | 0.12 | 0.12 | 99 | 1017.1 |
| 20260507211303 | 44 | 5 | 0.0 | 0.0 | 0.00 | 0.12 | 0.12 | 99 | 1017.1 |
| 20260507210803 | 44 | 5 | 0.0 | 0.0 | 0.00 | 0.12 | 0.12 | 99 | 1017.0 |
| 20260507210303 | 44 | 5 | 0.0 | 0.0 | 0.00 | 0.12 | 0.12 | 99 | 1017.0 |
| 20260507205306 | 45 | 5 | 0.0 | 0.0 | 0.00 | 0.12 | 0.12 | 99 | 1017.0 |
| 20260507204804 | 45 | 5 | 0.0 | 0.0 | 0.00 | 0.12 | 0.12 | 98 | 1017.0 |
| 20260507204305 | 45 | 5 | 0.0 | 0.0 | 0.00 | 0.12 | 0.12 | 99 | 1016.9 |
| 20260507203804 | 45 | 5 | 0.0 | 0.0 | 0.00 | 0.12 | 0.12 | 98 | 1016.9 |
| 20260507203304 | 45 | 5 | 0.0 | 0.0 | 0.00 | 0.13 | 0.12 | 98 | 1016.9 |
| 20260507202803 | 45 | 5 | 0.0 | 0.0 | 0.00 | 0.13 | 0.12 | 97 | 1016.7 |
| 20260507202306 | 46 | 5 | 0.0 | 0.0 | 0.00 | 0.13 | 0.12 | 98 | 1016.7 |
| 20260507201804 | 46 | 5 | 0.0 | 0.0 | 0.00 | 0.13 | 0.12 | 98 | 1016.7 |
| 20260507201304 | 46 | 5 | 0.0 | 0.0 | 0.00 | 0.13 | 0.12 | 97 | 1016.7 |
| 20260507200804 | 46 | 5 | 0.0 | 0.0 | 0.00 | 0.13 | 0.12 | 96 | 1016.7 |
| 20260507200304 | 47 | 5 | 0.0 | 0.0 | 0.00 | 0.13 | 0.12 | 96 | 1016.6 |
| 20260507195306 | 47 | 5 | 0.0 | 0.0 | 0.00 | 0.13 | 0.12 | 96 | 1016.4 |
| 20260507194803 | 47 | 5 | 0.0 | 0.0 | 0.00 | 0.13 | 0.12 | 96 | 1016.4 |
| 20260507194304 | 48 | 5 | 0.0 | 0.0 | 0.00 | 0.13 | 0.12 | 95 | 1016.4 |
| 20260507193804 | 48 | 5 | 0.0 | 0.0 | 0.00 | 0.13 | 0.12 | 95 | 1016.4 |
| 20260507193304 | 48 | 5 | 0.0 | 0.0 | 0.00 | 0.13 | 0.12 | 95 | 1016.4 |
| 20260507192803 | 49 | 5 | 0.0 | 0.0 | 0.00 | 0.13 | 0.12 | 94 | 1016.4 |
| 20260507191804 | 49 | 5 | 0.0 | 0.0 | 0.00 | 0.13 | 0.12 | 94 | 1016.3 |
| 20260507191304 | 49 | 5 | 0.0 | 0.0 | 0.00 | 0.13 | 0.12 | 93 | 1016.3 |
| 20260507190804 | 49 | 5 | 0.0 | 0.0 | 0.00 | 0.13 | 0.12 | 92 | 1016.2 |
| 20260507190303 | 50 | 5 | 0.0 | 0.0 | 0.00 | 0.14 | 0.12 | 91 | 1016.2 |
| 20260507185804 | 50 | 5 | 0.0 | 0.0 | 0.00 | 0.14 | 0.12 | 90 | 1016.1 |
| 20260507185305 | 51 | 5 | 0.0 | 0.0 | 0.00 | 0.15 | 0.12 | 89 | 1016.1 |
| 20260507183804 | 53 | 5 | 0.0 | 1.0 | 0.00 | 0.16 | 0.12 | 84 | 1016.0 |
| 20260507183304 | 53 | 5 | 0.0 | 2.0 | 0.00 | 0.17 | 0.12 | 83 | 1015.9 |
| 20260507182804 | 54 | 5 | 0.0 | 1.0 | 0.00 | 0.17 | 0.12 | 82 | 1015.9 |
| 20260507182306 | 54 | 5 | 1.0 | 3.0 | 0.00 | 0.17 | 0.12 | 80 | 1015.7 |
| 20260507181804 | 54 | 9 | 1.0 | 3.0 | 0.00 | 0.17 | 0.12 | 80 | 1015.7 |
| 20260507180803 | 55 | 9 | 0.0 | 2.0 | 0.00 | 0.18 | 0.12 | 80 | 1015.7 |
| 20260507175306 | 55 | 311 | 1.0 | 2.0 | 0.00 | 0.18 | 0.12 | 79 | 1015.6 |
| 20260507174804 | 56 | 311 | 0.0 | 3.0 | 0.00 | 0.19 | 0.12 | 78 | 1015.6 |
| 20260507174304 | 56 | 9 | 1.0 | 3.0 | 0.00 | 0.19 | 0.12 | 78 | 1015.6 |
| 20260507173304 | 56 | 302 | 1.0 | 6.0 | 0.00 | 0.19 | 0.12 | 77 | 1015.6 |
| 20260507172307 | 56 | 8 | 1.0 | 3.0 | 0.00 | 0.20 | 0.12 | 78 | 1015.3 |
| 20260507171804 | 56 | 28 | 3.0 | 5.0 | 0.00 | 0.20 | 0.12 | 77 | 1015.3 |
| 20260507171304 | 57 | 41 | 1.0 | 5.0 | 0.00 | 0.21 | 0.12 | 77 | 1015.3 |
| 20260507170804 | 57 | 29 | 2.0 | 5.0 | 0.00 | 0.21 | 0.12 | 76 | 1015.3 |
| 20260507165803 | 58 | 309 | 2.0 | 7.0 | 0.00 | 0.22 | 0.12 | 75 | 1015.3 |
| 20260507165306 | 58 | 326 | 2.0 | 5.0 | 0.00 | 0.23 | 0.12 | 74 | 1015.3 |
| 20260507164303 | 57 | 17 | 2.0 | 5.0 | 0.00 | 0.23 | 0.12 | 75 | 1015.3 |
| 20260507163804 | 58 | 7 | 1.0 | 2.0 | 0.00 | 0.24 | 0.12 | 75 | 1015.2 |
| 20260507163303 | 58 | 294 | 1.0 | 5.0 | 0.00 | 0.24 | 0.12 | 74 | 1015.2 |
| 20260507162803 | 58 | 320 | 2.0 | 5.0 | 0.00 | 0.24 | 0.12 | 73 | 1015.2 |
| 20260507162306 | 59 | 36 | 1.0 | 3.0 | 0.00 | 0.24 | 0.12 | 73 | 1015.2 |
| 20260507161803 | 59 | 12 | 1.0 | 3.0 | 0.00 | 0.24 | 0.12 | 74 | 1015.2 |
| 20260507161303 | 58 | 343 | 1.0 | 3.0 | 0.00 | 0.24 | 0.12 | 74 | 1015.2 |
| 20260507160804 | 58 | 315 | 1.0 | 5.0 | 0.00 | 0.25 | 0.12 | 73 | 1015.2 |
| 20260507160304 | 58 | 271 | 2.0 | 6.0 | 0.00 | 0.26 | 0.12 | 74 | 1015.2 |
| 20260507155804 | 58 | 151 | 2.0 | 7.0 | 0.00 | 0.27 | 0.12 | 74 | 1015.2 |
| 20260507155306 | 58 | 345 | 2.0 | 6.0 | 0.00 | 0.28 | 0.12 | 74 | 1015.2 |
| 20260507154803 | 59 | 275 | 2.0 | 5.0 | 0.00 | 0.28 | 0.12 | 72 | 1015.2 |
| 20260507153803 | 60 | 342 | 1.0 | 5.0 | 0.00 | 0.29 | 0.12 | 71 | 1015.1 |
| 20260507153304 | 59 | 250 | 1.0 | 5.0 | 0.00 | 0.29 | 0.12 | 74 | 1015.1 |
| 20260507152804 | 59 | 29 | 2.0 | 6.0 | 0.00 | 0.29 | 0.12 | 74 | 1015.1 |
| 20260507152306 | 58 | 66 | 0.0 | 5.0 | 0.00 | 0.30 | 0.12 | 76 | 1015.1 |
| 20260507151803 | 59 | 285 | 2.0 | 6.0 | 0.00 | 0.30 | 0.12 | 75 | 1015.1 |
| 20260507151304 | 59 | 299 | 2.0 | 5.0 | 0.00 | 0.31 | 0.12 | 75 | 1015.1 |
| 20260507150803 | 58 | 120 | 1.0 | 2.0 | 0.00 | 0.31 | 0.12 | 75 | 1015.2 |
| 20260507150303 | 58 | 343 | 1.0 | 5.0 | 0.00 | 0.31 | 0.12 | 77 | 1015.2 |
| 20260507145803 | 57 | 25 | 2.0 | 5.0 | 0.00 | 0.31 | 0.12 | 76 | 1015.2 |
| 20260507145306 | 57 | 6 | 2.0 | 5.0 | 0.00 | 0.31 | 0.12 | 78 | 1015.2 |
| 20260507144804 | 57 | 325 | 1.0 | 2.0 | 0.00 | 0.31 | 0.12 | 77 | 1015.3 |
| 20260507144304 | 56 | 27 | 2.0 | 5.0 | 0.00 | 0.31 | 0.12 | 79 | 1015.3 |
| 20260507143803 | 57 | 287 | 1.0 | 5.0 | 0.00 | 0.31 | 0.12 | 77 | 1015.3 |
| 20260507143304 | 57 | 288 | 1.0 | 3.0 | 0.00 | 0.31 | 0.12 | 76 | 1015.2 |
| 20260507142804 | 58 | 311 | 2.0 | 8.0 | 0.00 | 0.31 | 0.12 | 75 | 1015.2 |
| 20260507142306 | 58 | 313 | 2.0 | 5.0 | 0.00 | 0.31 | 0.12 | 74 | 1015.2 |
| 20260507141803 | 58 | 292 | 3.0 | 8.0 | 0.00 | 0.31 | 0.12 | 73 | 1015.2 |
| 20260507140804 | 58 | 262 | 2.0 | 5.0 | 0.00 | 0.31 | 0.12 | 75 | 1015.2 |
| 20260507135306 | 58 | 282 | 2.0 | 5.0 | 0.00 | 0.31 | 0.12 | 73 | 1015.2 |
| 20260507134804 | 59 | 302 | 1.0 | 5.0 | 0.00 | 0.31 | 0.12 | 71 | 1015.2 |
| 20260507134303 | 60 | 281 | 2.0 | 5.0 | 0.00 | 0.31 | 0.12 | 70 | 1015.2 |
| 20260507133303 | 61 | 317 | 1.0 | 5.0 | 0.00 | 0.31 | 0.12 | 71 | 1015.2 |
| 20260507132804 | 60 | 337 | 0.0 | 3.0 | 0.00 | 0.31 | 0.12 | 72 | 1015.2 |
| 20260507132307 | 60 | 315 | 1.0 | 3.0 | 0.00 | 0.31 | 0.12 | 72 | 1015.2 |
| 20260507131803 | 58 | 318 | 2.0 | 5.0 | 0.00 | 0.31 | 0.12 | 74 | 1015.2 |
| 20260507131304 | 57 | 300 | 2.0 | 5.0 | 0.00 | 0.31 | 0.12 | 77 | 1015.0 |
| 20260507130804 | 57 | 291 | 2.0 | 6.0 | 0.00 | 0.31 | 0.12 | 76 | 1015.0 |
| 20260507130303 | 57 | 344 | 2.0 | 6.0 | 0.00 | 0.31 | 0.12 | 75 | 1015.0 |
| 20260507125306 | 59 | 289 | 2.0 | 5.0 | 0.00 | 0.31 | 0.12 | 75 | 1015.1 |
| 20260507124804 | 59 | 34 | 3.0 | 9.0 | 0.00 | 0.31 | 0.12 | 72 | 1015.1 |
| 20260507124304 | 58 | 38 | 2.0 | 5.0 | 0.00 | 0.31 | 0.12 | 73 | 1015.1 |
| 20260507123304 | 57 | 306 | 2.0 | 7.0 | 0.00 | 0.31 | 0.12 | 77 | 1015.1 |
| 20260507122307 | 59 | 334 | 1.0 | 5.0 | 0.00 | 0.31 | 0.12 | 74 | 1014.9 |
| 20260507121803 | 59 | 277 | 2.0 | 6.0 | 0.00 | 0.31 | 0.12 | 76 | 1014.9 |
| 20260507120304 | 60 | 294 | 1.0 | 3.0 | 0.00 | 0.31 | 0.12 | 72 | 1014.9 |
| 20260507115803 | 59 | 327 | 1.0 | 5.0 | 0.00 | 0.31 | 0.12 | 72 | 1014.9 |
| 20260507114804 | 58 | 129 | 2.0 | 5.0 | 0.00 | 0.31 | 0.12 | 74 | 1014.9 |
| 20260507114318 | 57 | 279 | 2.0 | 5.0 | 0.00 | 0.31 | 0.12 | 78 | 1014.9 |
| 20260507113803 | 57 | 318 | 1.0 | 2.0 | 0.00 | 0.31 | 0.12 | 74 | 1014.9 |
| 20260507113304 | 57 | 304 | 1.0 | 5.0 | 0.00 | 0.31 | 0.12 | 77 | 1014.9 |
| 20260507112804 | 57 | 301 | 1.0 | 6.0 | 0.00 | 0.31 | 0.12 | 74 | 1014.9 |
| 20260507112306 | 58 | 316 | 2.0 | 8.0 | 0.00 | 0.31 | 0.12 | 75 | 1014.9 |
| 20260507111803 | 59 | 270 | 2.0 | 7.0 | 0.00 | 0.31 | 0.12 | 72 | 1014.9 |
| 20260507110804 | 58 | 295 | 0.0 | 2.0 | 0.00 | 0.31 | 0.12 | 74 | 1015.1 |
| 20260507110303 | 58 | 293 | 1.0 | 2.0 | 0.00 | 0.31 | 0.12 | 78 | 1015.1 |
| 20260507105803 | 58 | 340 | 1.0 | 2.0 | 0.00 | 0.31 | 0.12 | 76 | 1015.1 |
| 20260507105306 | 57 | 340 | 1.0 | 2.0 | 0.00 | 0.31 | 0.12 | 79 | 1015.1 |
| 20260507104803 | 57 | 53 | 1.0 | 3.0 | 0.00 | 0.31 | 0.12 | 76 | 1015.1 |
| 20260507102803 | 54 | 10 | 1.0 | 3.0 | 0.00 | 0.31 | 0.12 | 85 | 1015.1 |
| 20260507102306 | 54 | 299 | 1.0 | 2.0 | 0.00 | 0.31 | 0.12 | 85 | 1015.0 |
| 20260507101804 | 53 | 292 | 1.0 | 3.0 | 0.00 | 0.31 | 0.12 | 86 | 1015.0 |
| 20260507101303 | 54 | 317 | 0.0 | 5.0 | 0.00 | 0.31 | 0.12 | 87 | 1015.0 |
| 20260507100804 | 54 | 309 | 1.0 | 5.0 | 0.00 | 0.31 | 0.12 | 85 | 1015.0 |
| 20260507100303 | 54 | 5 | 0.0 | 1.0 | 0.00 | 0.31 | 0.12 | 85 | 1015.0 |
| 20260507095803 | 54 | 5 | 1.0 | 2.0 | 0.00 | 0.31 | 0.12 | 87 | 1015.0 |
| 20260507094304 | 53 | 310 | 2.0 | 5.0 | 0.00 | 0.31 | 0.12 | 86 | 1014.8 |
| 20260507092803 | 53 | 266 | 1.0 | 5.0 | 0.00 | 0.31 | 0.12 | 87 | 1014.7 |
| 20260507092307 | 52 | 273 | 1.0 | 5.0 | 0.00 | 0.31 | 0.12 | 88 | 1014.7 |
| 20260507091804 | 52 | 328 | 2.0 | 5.0 | 0.00 | 0.31 | 0.12 | 87 | 1014.7 |
| 20260507091303 | 52 | 311 | 1.0 | 5.0 | 0.00 | 0.31 | 0.12 | 86 | 1014.5 |
| 20260507090804 | 53 | 236 | 2.0 | 7.0 | 0.00 | 0.31 | 0.12 | 87 | 1014.5 |
| 20260507090303 | 53 | 341 | 2.0 | 3.0 | 0.00 | 0.31 | 0.12 | 85 | 1014.5 |
| 20260507085804 | 54 | 286 | 2.0 | 3.0 | 0.00 | 0.31 | 0.12 | 88 | 1014.4 |
| 20260507084804 | 53 | 299 | 1.0 | 5.0 | 0.01 | 0.31 | 0.12 | 90 | 1014.4 |
| 20260507083803 | 53 | 287 | 1.0 | 3.0 | 0.01 | 0.31 | 0.12 | 89 | 1014.2 |
| 20260507083304 | 53 | 315 | 1.0 | 3.0 | 0.01 | 0.31 | 0.12 | 92 | 1014.2 |
| 20260507082803 | 53 | 246 | 1.0 | 5.0 | 0.01 | 0.31 | 0.12 | 91 | 1014.2 |
| 20260507082306 | 53 | 217 | 1.0 | 2.0 | 0.02 | 0.31 | 0.12 | 94 | 1014.2 |
| 20260507081803 | 52 | 236 | 0.0 | 5.0 | 0.02 | 0.31 | 0.12 | 93 | 1014.2 |
| 20260507081303 | 52 | 346 | 1.0 | 2.0 | 0.02 | 0.31 | 0.12 | 94 | 1014.0 |
| 20260507080804 | 52 | 346 | 1.0 | 3.0 | 0.02 | 0.31 | 0.12 | 94 | 1014.0 |
| 20260507075306 | 51 | 246 | 1.0 | 3.0 | 0.02 | 0.31 | 0.12 | 93 | 1014.0 |
| 20260507074304 | 51 | 325 | 1.0 | 3.0 | 0.02 | 0.30 | 0.11 | 95 | 1013.9 |
| 20260507073804 | 51 | 276 | 1.0 | 3.0 | 0.02 | 0.30 | 0.11 | 96 | 1013.4 |
| 20260507073303 | 51 | 261 | 0.0 | 2.0 | 0.02 | 0.30 | 0.11 | 97 | 1013.4 |
| 20260507072804 | 51 | 252 | 1.0 | 2.0 | 0.02 | 0.30 | 0.11 | 97 | 1013.4 |
| 20260507072306 | 51 | 314 | 1.0 | 2.0 | 0.02 | 0.29 | 0.10 | 96 | 1013.4 |
| 20260507071803 | 51 | 314 | 0.0 | 2.0 | 0.02 | 0.29 | 0.10 | 96 | 1013.4 |
| 20260507071303 | 51 | 314 | 0.0 | 2.0 | 0.02 | 0.29 | 0.10 | 97 | 1013.4 |
| 20260507070804 | 51 | 314 | 1.0 | 3.0 | 0.02 | 0.29 | 0.10 | 96 | 1013.4 |
| 20260507070304 | 51 | 314 | 1.0 | 3.0 | 0.02 | 0.28 | 0.09 | 96 | 1013.4 |
| 20260507065804 | 51 | 314 | 1.0 | 2.0 | 0.02 | 0.28 | 0.09 | 97 | 1013.4 |
| 20260507064803 | 51 | 286 | 1.0 | 3.0 | 0.02 | 0.28 | 0.09 | 97 | 1013.2 |
| 20260507064303 | 51 | 252 | 1.0 | 2.0 | 0.02 | 0.28 | 0.09 | 97 | 1013.2 |
| 20260507063803 | 51 | 250 | 0.0 | 2.0 | 0.02 | 0.28 | 0.09 | 98 | 1013.1 |
| 20260507063303 | 51 | 272 | 0.0 | 3.0 | 0.02 | 0.28 | 0.09 | 99 | 1013.1 |
| 20260507062803 | 51 | 280 | 0.0 | 2.0 | 0.02 | 0.28 | 0.09 | 99 | 1013.1 |
| 20260507062306 | 51 | 280 | 1.0 | 2.0 | 0.02 | 0.28 | 0.09 | 99 | 1013.1 |
| 20260507061804 | 50 | 280 | 0.0 | 2.0 | 0.02 | 0.28 | 0.09 | 99 | 1013.1 |
| 20260507061303 | 50 | 280 | 0.0 | 2.0 | 0.01 | 0.27 | 0.08 | 99 | 1013.1 |
| 20260507060803 | 50 | 280 | 0.0 | 1.0 | 0.01 | 0.27 | 0.08 | 98 | 1012.9 |
| 20260507060304 | 50 | 280 | 0.0 | 1.0 | 0.01 | 0.27 | 0.08 | 98 | 1012.9 |
| 20260507055804 | 50 | 280 | 1.0 | 3.0 | 0.01 | 0.27 | 0.08 | 98 | 1012.8 |
| 20260507055306 | 50 | 265 | 1.0 | 3.0 | 0.01 | 0.27 | 0.08 | 98 | 1012.8 |
| 20260507054803 | 50 | 293 | 0.0 | 3.0 | 0.01 | 0.26 | 0.07 | 97 | 1012.8 |
| 20260507054303 | 50 | 293 | 1.0 | 3.0 | 0.01 | 0.26 | 0.07 | 97 | 1012.7 |
| 20260507053804 | 50 | 290 | 1.0 | 2.0 | 0.01 | 0.26 | 0.07 | 97 | 1012.4 |
| 20260507053303 | 50 | 291 | 0.0 | 1.0 | 0.01 | 0.26 | 0.07 | 98 | 1012.4 |
| 20260507052804 | 50 | 291 | 1.0 | 3.0 | 0.01 | 0.26 | 0.07 | 98 | 1012.4 |
| 20260507052306 | 50 | 303 | 1.0 | 5.0 | 0.01 | 0.26 | 0.07 | 98 | 1012.4 |
| 20260507051804 | 50 | 178 | 0.0 | 2.0 | 0.01 | 0.26 | 0.07 | 98 | 1012.4 |
| 20260507051304 | 50 | 271 | 0.0 | 2.0 | 0.02 | 0.26 | 0.07 | 98 | 1012.4 |
| 20260507050304 | 50 | 271 | 0.0 | 2.0 | 0.02 | 0.26 | 0.07 | 98 | 1012.2 |
| 20260507045804 | 50 | 271 | 0.0 | 3.0 | 0.02 | 0.26 | 0.07 | 98 | 1012.2 |
| 20260507045306 | 50 | 271 | 1.0 | 2.0 | 0.02 | 0.26 | 0.07 | 98 | 1012.2 |
| 20260507044803 | 50 | 271 | 0.0 | 1.0 | 0.02 | 0.25 | 0.06 | 98 | 1012.1 |
| 20260507044304 | 49 | 271 | 1.0 | 3.0 | 0.02 | 0.25 | 0.06 | 98 | 1011.8 |
| 20260507043303 | 49 | 271 | 0.0 | 3.0 | 0.02 | 0.25 | 0.06 | 98 | 1011.8 |
| 20260507042804 | 49 | 271 | 1.0 | 2.0 | 0.02 | 0.25 | 0.06 | 98 | 1011.8 |
| 20260507041803 | 49 | 271 | 0.0 | 2.0 | 0.02 | 0.25 | 0.06 | 98 | 1011.8 |
| 20260507041304 | 49 | 271 | 1.0 | 2.0 | 0.02 | 0.24 | 0.06 | 98 | 1011.7 |
| 20260507035803 | 49 | 305 | 1.0 | 2.0 | 0.01 | 0.24 | 0.05 | 98 | 1011.6 |
| 20260507035306 | 49 | 305 | 0.0 | 2.0 | 0.01 | 0.24 | 0.05 | 98 | 1011.6 |
| 20260507034804 | 49 | 305 | 0.0 | 3.0 | 0.01 | 0.24 | 0.05 | 98 | 1011.6 |
| 20260507034304 | 50 | 311 | 1.0 | 3.0 | 0.01 | 0.24 | 0.05 | 98 | 1011.5 |
| 20260507033303 | 50 | 278 | 1.0 | 3.0 | 0.02 | 0.24 | 0.05 | 97 | 1011.3 |
| 20260507032803 | 50 | 224 | 1.0 | 2.0 | 0.02 | 0.24 | 0.05 | 97 | 1011.3 |
| 20260507032306 | 49 | 306 | 1.0 | 3.0 | 0.02 | 0.24 | 0.05 | 97 | 1011.3 |
| 20260507031804 | 49 | 300 | 1.0 | 3.0 | 0.02 | 0.24 | 0.05 | 97 | 1011.3 |
| 20260507031303 | 49 | 313 | 0.0 | 1.0 | 0.01 | 0.23 | 0.04 | 98 | 1011.3 |
| 20260507030303 | 50 | 266 | 0.0 | 3.0 | 0.01 | 0.23 | 0.04 | 97 | 1011.2 |
| 20260507025804 | 50 | 266 | 0.0 | 2.0 | 0.01 | 0.23 | 0.04 | 98 | 1011.1 |
| 20260507025306 | 50 | 266 | 1.0 | 5.0 | 0.01 | 0.23 | 0.04 | 97 | 1011.1 |
| 20260507024803 | 50 | 130 | 1.0 | 2.0 | 0.01 | 0.23 | 0.04 | 98 | 1011.1 |
| 20260507024303 | 49 | 130 | 1.0 | 3.0 | 0.02 | 0.23 | 0.04 | 97 | 1011.0 |
| 20260507023803 | 50 | 92 | 0.0 | 1.0 | 0.01 | 0.22 | 0.03 | 99 | 1011.0 |
| 20260507023303 | 50 | 92 | 1.0 | 2.0 | 0.02 | 0.22 | 0.03 | 98 | 1011.0 |
| 20260507022803 | 50 | 92 | 0.0 | 3.0 | 0.02 | 0.22 | 0.03 | 98 | 1011.0 |
| 20260507022306 | 50 | 92 | 0.0 | 1.0 | 0.02 | 0.22 | 0.03 | 98 | 1011.0 |
| 20260507021803 | 50 | 92 | 0.0 | 2.0 | 0.02 | 0.22 | 0.03 | 98 | 1010.9 |
| 20260507021303 | 50 | 92 | 0.0 | 2.0 | 0.02 | 0.22 | 0.03 | 97 | 1010.9 |
| 20260507020803 | 50 | 10 | 1.0 | 2.0 | 0.02 | 0.22 | 0.03 | 98 | 1010.8 |
| 20260507020303 | 50 | 108 | 1.0 | 2.0 | 0.03 | 0.22 | 0.03 | 98 | 1010.7 |
| 20260507015804 | 50 | 108 | 0.0 | 1.0 | 0.03 | 0.22 | 0.03 | 98 | 1010.7 |
| 20260507015306 | 50 | 110 | 1.0 | 3.0 | 0.03 | 0.22 | 0.03 | 98 | 1010.7 |
| 20260507014819 | 50 | 153 | 0.0 | 1.0 | 0.03 | 0.22 | 0.03 | 98 | 1010.6 |
| 20260507014318 | 50 | 153 | 1.0 | 2.0 | 0.02 | 0.21 | 0.02 | 98 | 1010.6 |
| 20260507013803 | 50 | 61 | 0.0 | 2.0 | 0.02 | 0.21 | 0.02 | 98 | 1010.6 |
| 20260507012804 | 50 | 61 | 1.0 | 2.0 | 0.02 | 0.20 | 0.02 | 99 | 1010.6 |
| 20260507012306 | 50 | 61 | 0.0 | 1.0 | 0.02 | 0.20 | 0.02 | 98 | 1010.5 |
| 20260507011804 | 50 | 61 | 0.0 | 1.0 | 0.02 | 0.20 | 0.02 | 98 | 1010.5 |
| 20260507011304 | 50 | 61 | 0.0 | 1.0 | 0.01 | 0.20 | 0.01 | 98 | 1010.5 |
| 20260507010804 | 50 | 61 | 0.0 | 1.0 | 0.01 | 0.20 | 0.01 | 98 | 1010.5 |
| 20260507010304 | 50 | 61 | 0.0 | 1.0 | 0.00 | 0.19 | 0.00 | 98 | 1010.5 |
| 20260507004804 | 50 | 82 | 0.0 | 1.0 | 0.00 | 0.20 | 0.00 | 97 | 1010.4 |
| 20260507004304 | 50 | 82 | 1.0 | 5.0 | 0.00 | 0.20 | 0.00 | 96 | 1010.4 |
| 20260507002306 | 50 | 154 | 1.0 | 3.0 | 0.00 | 0.20 | 0.00 | 96 | 1010.4 |
| 20260507001803 | 50 | 249 | 0.0 | 1.0 | 0.00 | 0.20 | 0.00 | 97 | 1010.4 |
| 20260507001304 | 50 | 242 | 1.0 | 3.0 | 0.00 | 0.20 | 0.00 | 96 | 1010.4 |
| 20260507000306 | 50 | 277 | 0.0 | 0.0 | 0.00 | 0.20 | 0.00 | 96 | 1010.4 |
| 20260506235803 | 50 | 277 | 0.0 | 0.0 | 0.00 | 0.20 | 0.00 | 96 | 1010.4 |
| 20260506235306 | 50 | 277 | 1.0 | 5.0 | 0.00 | 0.20 | 0.00 | 95 | 1010.4 |
| 20260506234803 | 50 | 220 | 0.0 | 2.0 | 0.00 | 0.20 | 0.00 | 95 | 1010.4 |
| 20260506233803 | 50 | 261 | 0.0 | 1.0 | 0.00 | 0.20 | 0.00 | 96 | 1010.4 |
| 20260506233304 | 51 | 261 | 0.0 | 0.0 | 0.00 | 0.20 | 0.00 | 96 | 1010.4 |
| 20260506232306 | 51 | 261 | 0.0 | 2.0 | 0.00 | 0.20 | 0.00 | 95 | 1010.5 |
| 20260506231804 | 51 | 261 | 1.0 | 5.0 | 0.00 | 0.20 | 0.00 | 93 | 1010.5 |
| 20260506231303 | 51 | 298 | 1.0 | 3.0 | 0.00 | 0.20 | 0.00 | 94 | 1010.5 |
| 20260506230803 | 51 | 236 | 0.0 | 2.0 | 0.00 | 0.20 | 0.00 | 94 | 1010.5 |
| 20260506230304 | 51 | 270 | 1.0 | 3.0 | 0.00 | 0.20 | 0.00 | 94 | 1010.5 |
| 20260506225803 | 51 | 315 | 1.0 | 5.0 | 0.00 | 0.20 | 0.00 | 94 | 1010.4 |
| 20260506225305 | 51 | 304 | 1.0 | 5.0 | 0.00 | 0.20 | 0.00 | 94 | 1010.4 |
| 20260506224803 | 51 | 206 | 1.0 | 3.0 | 0.00 | 0.20 | 0.00 | 95 | 1010.3 |
| 20260506224304 | 51 | 173 | 1.0 | 1.0 | 0.00 | 0.20 | 0.00 | 95 | 1010.3 |
| 20260506223803 | 51 | 170 | 0.0 | 1.0 | 0.00 | 0.20 | 0.00 | 95 | 1010.3 |
| 20260506223304 | 51 | 162 | 1.0 | 5.0 | 0.00 | 0.20 | 0.00 | 95 | 1010.3 |
| 20260506222804 | 51 | 312 | 2.0 | 3.0 | 0.00 | 0.20 | 0.00 | 95 | 1010.3 |
| 20260506222306 | 51 | 12 | 0.0 | 1.0 | 0.00 | 0.20 | 0.00 | 97 | 1010.3 |
| 20260506221818 | 51 | 12 | 0.0 | 0.0 | 0.00 | 0.20 | 0.00 | 97 | 1010.3 |
| 20260506221304 | 51 | 12 | 0.0 | 1.0 | 0.00 | 0.20 | 0.00 | 97 | 1010.1 |
| 20260506220810 | 51 | 12 | 0.0 | 3.0 | 0.00 | 0.20 | 0.00 | 96 | 1010.1 |
| 20260506220305 | 51 | 277 | 1.0 | 3.0 | 0.00 | 0.20 | 0.00 | 95 | 1010.1 |
| 20260506215803 | 51 | 317 | 1.0 | 2.0 | 0.00 | 0.20 | 0.20 | 96 | 1010.1 |
| 20260506215306 | 51 | 317 | 0.0 | 3.0 | 0.00 | 0.20 | 0.20 | 95 | 1010.1 |